This is the latest recevied weather packets stored in our database for station/object JA3YAI-13. If no packets are shown the sender has not sent any weather packets the latest 10 day(s).
| Time | Temp. | Humidity | Pressure | Rain* | Wind** | Luminosity | Snow |
|---|---|---|---|---|---|---|---|
| 1777514184 | 12.22° C | 99% | 1011.2 hPa | 2.29 mm | - | - | - |
| 1777513584 | 12.22° C | 99% | 1011.3 hPa | 3.05 mm | - | - | - |
| 1777512985 | 12.22° C | 99% | 1011.4 hPa | 3.05 mm | - | - | - |
| 1777512385 | 12.22° C | 99% | 1011.4 hPa | 2.79 mm | - | - | - |
| 1777511784 | 12.22° C | 99% | 1011.5 hPa | 3.05 mm | - | - | - |
| 1777511184 | 11.67° C | 99% | 1011.5 hPa | 2.79 mm | - | - | - |
| 1777510586 | 11.67° C | 99% | 1011.8 hPa | 2.79 mm | - | - | - |
| 1777509985 | 12.22° C | 99% | 1012 hPa | 2.03 mm | - | - | - |
| 1777509385 | 11.67° C | 99% | 1011.8 hPa | 2.79 mm | - | - | - |
| 1777508784 | 11.67° C | 99% | 1011.7 hPa | 2.79 mm | - | - | - |
| 1777508184 | 11.67° C | 99% | 1011.8 hPa | 2.29 mm | - | - | - |
| 1777507584 | 11.67° C | 99% | 1011.8 hPa | 2.79 mm | - | - | - |
| 1777506985 | 11.67° C | 98% | 1011.7 hPa | 2.29 mm | - | - | - |
| 1777506385 | 11.67° C | 99% | 1012.1 hPa | 3.05 mm | - | - | - |
| 1777505784 | 11.67° C | 98% | 1011.9 hPa | 2.29 mm | - | - | - |
| 1777505184 | 11.67° C | 98% | 1011.8 hPa | 2.79 mm | - | - | - |
| 1777504586 | 11.67° C | 98% | 1011.8 hPa | 2.79 mm | - | - | - |
| 1777503985 | 11.67° C | 98% | 1011.4 hPa | 2.29 mm | - | - | - |
| 1777503385 | 11.67° C | 98% | 1011.6 hPa | 2.29 mm | - | - | - |
| 1777502784 | 11.67° C | 98% | 1011.5 hPa | 2.03 mm | - | - | - |
| 1777502184 | 11.67° C | 98% | 1011.6 hPa | 2.03 mm | - | - | - |
| 1777501585 | 11.67° C | 98% | 1011.6 hPa | 1.78 mm | - | - | - |
| 1777500985 | 11.67° C | 98% | 1011.3 hPa | 1.78 mm | - | - | - |
| 1777500385 | 11.67° C | 98% | 1011.2 hPa | 1.78 mm | - | - | - |
| 1777499784 | 11.67° C | 98% | 1011.3 hPa | 1.78 mm | - | - | - |
* Rain latest hour (hover to see other rain measurements)
** Current wind speed in m/s (hover to see current wind gust speed)